AirNav   Phillips 66 Aviation Fuel
 
 687 users online  

33MD Greer Airport
Taneytown, Maryland, USA


FAA INFORMATION EFFECTIVE 14 SEPTEMBER 2017

Location

FAA Identifier: 33MD
Lat/Long: 39-40-47.7000N / 077-06-49.0000W
39-40.795000N / 077-06.816667W
39.6799167 / -77.1136111
(estimated)
Elevation: 610 ft. / 186 m (estimated)
From city: 3 miles SW of TANEYTOWN, MD
Time zone: UTC -4 (UTC -5 during Standard Time)
Zip code: 21787

Airport Operations

Airport use: Private use. Permission required prior to landing
Activation date: 03/2010
Control tower: no
ARTCC: WASHINGTON CENTER
FSS: LEESBURG FLIGHT SERVICE STATION
Attendance: DAWN-DUSK
Wind indicator: yes
Segmented circle: no

Airport Communications

WX AWOS-3 at DMW (7 nm SE): 121.25 (410-876-1281)
WX ASOS at THV (18 nm NE): 119.275 (717-792-5529)
WX AWOS-3 at FDK (20 nm SW): 124.875 (301-600-1457)

Nearby radio navigation aids

VOR radial/distance  VOR name  Freq  Var
EMIr339/12.7WESTMINSTER VORTAC117.9008W
FDKr045/(20.1)FREDERICK VOR109.0008W
HGRr099/(34.3)HAGERSTOWN VOR109.8007W
BALr337/37.0BALTIMORE VORTAC115.1011W
HARr193/37.4HARRISBURG VORTAC112.5010W
MRBr070/38.3MARTINSBURG VORTAC112.1007W

 
NDB name  Hdg/Dist  Freq  Var  ID
ELLICOTT338/28.237111WFND ..-. -. -..
INSTITUTE324/32.740408WIUB .. ..- -...

Airport Services

Runway Information

Runway 1/19

Dimensions: 1300 x 60 ft. / 396 x 18 m
Surface: turf
RUNWAY 1  RUNWAY 19
Traffic pattern: leftleft
Obstructions: 50 ft. plines, 500 ft. from runwaynone

Airport Ownership and Management from official FAA records

Ownership: Privately-owned
Owner: JOEL GREER
3305 KUMP STATION RD
TANEYTOWN, MD 21787
Phone 410-346-6008
Manager: JOEL GREER
3305 KUMP STATION RD
TANEYTOWN, MD 21787
Phone 410-346-6008

Instrument Procedures

There are no published instrument procedures at 33MD.

Some nearby airports with instrument procedures:

KDMW - Carroll County Regional Airport/Jack B Poage Field (7 nm SE)
W05 - Gettysburg Regional Airport (12 nm NW)
2W2 - Clearview Airpark (14 nm S)
KTHV - York Airport (18 nm NE)
KFDK - Frederick Municipal Airport (20 nm SW)
 
Loc | Ops | Rwys | IFR | FBO | Links
Com | Nav | Svcs | Stats | Notes


 
Aerial photo
No photo
 
Sectional chart

 
Airport distance calculator
Flying to Greer Airport? Find the distance to fly.

From to 33MD

Sunrise and sunset
Times for 22-Sep-2017
 Local
(UTC-4)
 Zulu
(UTC)
Morning civil twilight06:3010:30
Sunrise06:5710:57
Sunset19:0523:05
Evening civil twilight19:3223:32

Current date and time
Zulu (UTC)  22-Sep-2017 11:50:46
Local (UTC-4)  22-Sep-2017 07:50:46
 
METAR
KDMW 
7nm SE 
221125Z AUTO 00000KT 10SM CLR 19/18 A3009 RMK AO2
KTHV 
18nm NE 
221053Z AUTO 00000KT 8SM CLR 14/14 A3008 RMK AO2 SLP186 T01440144
KFDK 
20nm SW 
221055Z 00000KT 7SM BR BKN250 17/17 A3010
TAF
KMDT 
35nm NE 
220927Z 2209/2306 VRB03KT P6SM BKN250 FM221200 01007KT P6SM BKN250
KBWI 
37nm SE 
220904Z 2209/2312 33004KT P6SM OVC250 FM221700 35007KT P6SM FEW200 FM230500 VRB03KT P6SM FEW250
KMTN 
39nm SE 
211730Z 2118/2218 01004KT P6SM FEW045 SCT120
KMRB 
44nm W 
220527Z 2206/2306 VRB03KT P6SM BKN250
NOTAMs
Click for the latest NOTAMs
NOTAMs are issued by the DoD/FAA and will open in a separate window not controlled by AirNav.

 

 
 

Would you like to see your business listed on this page?

 If your business provides an interesting product or service to pilots, flight crews, aircraft, or users of the Greer Airport, you should consider listing it here.  To start the listing process, click on the button below
 
Add a business
 

Other Pages about Greer Airport

Update a link
 
Copyright © AirNav, LLC. All rights reserved. Privacy Policy  Contact